Location: Unspecified
(0.0000°N, 0.0000°E)
Time: 12:01:47
(UTC+00:00)

Vanguard 2 - Pass Details

Date: 22 December 2018
Orbit: 552 x 2939 km, 32.9° (Epoch: 25 March)

Event Time Altitude Azimuth Distance (km) Brightness Sun altitude
Rises 15:08:10 0° 260° (W) 4,324 12.2 38.4°
Reaches altitude 10° 15:12:34 10° 276° (W) 2,888 11.3 37.5°
Maximum altitude 15:17:00 18° 318° (NW) 1,924 9.9 36.5°
Drops below altitude 10° 15:20:26 10° 3° (N) 2,156 9.7 35.7°
Sets 15:23:08 0° 24° (NNE) 2,882 10.1 35.2°
